Satellite-Ground Cal/Val Region Overpasses Predictions

Prediction of Satellite NPP Overpassing Cal/Val Region: PacNW

Region Location: (Latitude: 10.00, Longitude: 139.50) to (Latitude: 22.70, Longitude: 165.60).

Table of predicted overpasses for the next 14.0 days since TLE Epoch: 1/18/2016
Interval Starting Time Starting Location Ending Time Ending Location
1 01/18/2016 15:38:31 ( 22.67, 150.73) 01/18/2016 15:42:06 ( 10.05, 147.73)
2 01/19/2016 02:47:36 ( 10.04, 158.26) 01/19/2016 02:51:11 ( 22.67, 155.27)
3 01/19/2016 15:19:28 ( 22.65, 155.49) 01/19/2016 15:23:03 ( 10.03, 152.49)
4 01/20/2016 02:28:32 ( 10.01, 163.03) 01/20/2016 02:32:08 ( 22.68, 160.02)
5 01/20/2016 15:00:25 ( 22.69, 160.25) 01/20/2016 15:04:01 ( 10.01, 157.24)
6 01/21/2016 02:12:09 ( 19.36, 165.60) 01/21/2016 02:13:05 ( 22.65, 164.79)
7 01/21/2016 03:51:00 ( 10.04, 142.41) 01/21/2016 03:54:29 ( 22.30, 139.50)
8 01/21/2016 14:41:22 ( 22.67, 165.01) 01/21/2016 14:44:57 ( 10.05, 162.01)
9 01/21/2016 16:22:52 ( 22.66, 139.63) 01/21/2016 16:23:00 ( 22.19, 139.51)
10 01/22/2016 03:31:57 ( 10.06, 147.17) 01/22/2016 03:35:32 ( 22.68, 144.17)
11 01/22/2016 16:03:49 ( 22.70, 144.40) 01/22/2016 16:07:25 ( 10.01, 141.39)
12 01/23/2016 03:12:54 ( 10.02, 151.93) 01/23/2016 03:16:30 ( 22.70, 148.92)
13 01/23/2016 15:44:46 ( 22.68, 149.15) 01/23/2016 15:48:21 ( 10.05, 146.16)
14 01/24/2016 02:53:51 ( 10.04, 156.69) 01/24/2016 02:57:26 ( 22.66, 153.69)
15 01/24/2016 15:25:44 ( 22.65, 153.91) 01/24/2016 15:29:19 ( 10.03, 150.91)
16 01/25/2016 02:34:48 ( 10.00, 161.46) 01/25/2016 02:38:24 ( 22.68, 158.45)
17 01/25/2016 15:06:41 ( 22.69, 158.68) 01/25/2016 15:10:17 ( 10.01, 155.67)
18 01/26/2016 02:16:31 ( 12.73, 165.59) 01/26/2016 02:19:20 ( 22.65, 163.21)
19 01/26/2016 03:57:15 ( 10.03, 140.83) 01/26/2016 03:58:53 ( 15.79, 139.50)
20 01/26/2016 14:47:38 ( 22.67, 163.43) 01/26/2016 14:51:13 ( 10.04, 160.43)
21 01/27/2016 03:38:13 ( 10.06, 145.59) 01/27/2016 03:41:48 ( 22.68, 142.59)
22 01/27/2016 14:31:41 ( 11.78, 165.59) 01/27/2016 14:32:11 ( 10.02, 165.19)
23
